Muncie, IN

4:10 PM EDT on March 24, 2017 (GMT -0400)
Delaware County-Johnson

Weather History for KMIE - August, 2014

Change the Weather History Date:

Friday, August 8, 2014

  Actual Average Record
Temperature  
Mean Temperature 72 °F 73 °F  
Max Temperature 83 °F 83 °F 95 °F (2007)
Min Temperature 60 °F 63 °F 47 °F (1989)
Degree Days  
Heating Degree Days 0 0  
Month to date heating degree days 0 0  
Since 1 June heating degree days 26 27  
Since 1 July heating degree days 18 3  
Cooling Degree Days 7 8  
Month to date cooling degree days 48 66  
Year to date cooling degree days 561 659  
Since 1 June cooling degree days 446 576  
Growing Degree Days 22 (Base 50)    
Moisture  
Dew Point 56 °F    
Average Humidity 62    
Maximum Humidity 84    
Minimum Humidity 39    
Precipitation  
Precipitation 0.00 in 0.10 in 0.93 in (2011)
Month to date precipitation 0.15 0.88  
Year to date precipitation 22.51 25.49  
Sea Level Pressure  
Sea Level Pressure 30.04 in    
Wind  
Wind Speed 9 mph (ESE)    
Max Wind Speed 18 mph    
Max Gust Speed 23 mph    
Visibility 10 miles    
Events      
T = Trace of Precipitation, MM = Missing Value Source: NWS Daily Summary

Daily Weather History Graph

Daily Weather History Graph

Search for Another Location

Airport or City:

Trip Planner

Search our weather history database for the weather conditions in past years. The results will help you decide how hot, cold, wet, or windy it might be!

Date:

Astronomy

Aug. 08, 2014 Rise Set
Actual Time 6:46 AM EDT 8:47 PM EDT
Civil Twilight 6:16 AM EDT 9:17 PM EDT
Nautical Twilight 5:39 AM EDT 9:53 PM EDT
Astronomical Twilight 5:00 AM EDT 10:32 PM EDT
Moon 6:58 PM EDT (8/8) 4:17 AM EDT (8/8)
Length of Visible Light 15h 01m
Length of Day
14h 01m
Waxing Gibbous, 93% of the Moon is Illuminated
Aug 8
Waxing Gibbous
Aug 10
Full
Aug 17
Last Quarter
Aug 25
New
Sep 2
First Quarter

Hourly Weather History & Observations

Time (EDT) Temp. Heat Index Dew Point Humidity Pressure Visibility Wind Dir Wind Speed Gust Speed Precip Events Conditions
1:53 AM 61.0 °F - 54.0 °F 78% 30.05 in 10.0 mi East 4.6 mph - N/A   Clear
2:53 AM 61.0 °F - 54.0 °F 78% 30.04 in 10.0 mi ESE 6.9 mph - N/A   Clear
3:53 AM 61.0 °F - 55.0 °F 81% 30.04 in 10.0 mi East 5.8 mph - N/A   Clear
4:53 AM 61.0 °F - 55.0 °F 81% 30.05 in 10.0 mi SE 4.6 mph - N/A   Partly Cloudy
5:53 AM 61.0 °F - 55.0 °F 81% 30.05 in 10.0 mi East 6.9 mph - N/A   Partly Cloudy
6:53 AM 61.0 °F - 55.0 °F 81% 30.06 in 10.0 mi ESE 5.8 mph - N/A   Clear
7:53 AM 63.0 °F - 55.0 °F 75% 30.06 in 10.0 mi ESE 8.1 mph - N/A   Mostly Cloudy
8:53 AM 64.9 °F - 55.9 °F 73% 30.09 in 10.0 mi East 5.8 mph - N/A   Overcast
9:53 AM 70.0 °F - 57.0 °F 63% 30.09 in 10.0 mi ESE 8.1 mph - N/A   Clear
10:53 AM 75.0 °F - 59.0 °F 57% 30.07 in 10.0 mi ESE 11.5 mph - N/A   Clear
11:53 AM 75.9 °F - 57.0 °F 52% 30.06 in 10.0 mi SE 15.0 mph - N/A   Clear
12:53 PM 79.0 °F - 57.0 °F 47% 30.06 in 10.0 mi ESE 16.1 mph 21.9 mph N/A   Clear
1:53 PM 80.1 °F 80.4 °F 57.0 °F 45% 30.04 in 10.0 mi East 12.7 mph - N/A   Partly Cloudy
2:53 PM 81.0 °F 80.5 °F 54.0 °F 39% 30.03 in 10.0 mi East 15.0 mph - N/A   Partly Cloudy
3:53 PM 82.0 °F 81.4 °F 55.0 °F 39% 30.02 in 10.0 mi East 13.8 mph 17.3 mph N/A   Clear
4:53 PM 81.0 °F 80.5 °F 54.0 °F 39% 30.01 in 10.0 mi ESE 13.8 mph - N/A   Clear
5:53 PM 81.0 °F 80.8 °F 55.9 °F 42% 30.01 in 10.0 mi East 13.8 mph - N/A   Partly Cloudy
6:53 PM 80.1 °F 80.1 °F 55.0 °F 42% 30.01 in 10.0 mi East 13.8 mph - N/A   Clear
7:53 PM 77.0 °F - 57.0 °F 50% 30.01 in 10.0 mi East 6.9 mph - N/A   Clear
8:53 PM 70.0 °F - 57.9 °F 65% 30.01 in 10.0 mi East 5.8 mph - N/A   Clear
9:53 PM 66.9 °F - 57.0 °F 70% 30.02 in 10.0 mi East 4.6 mph - N/A   Clear
10:53 PM 66.0 °F - 57.0 °F 73% 30.04 in 10.0 mi East 4.6 mph - N/A   Clear
11:53 PM 66.0 °F - 57.0 °F 73% 30.04 in 10.0 mi ENE 6.9 mph - N/A   Clear